Retour au catalogue

DELTA 1 DEB

ActifSSO
NORAD 13573·DEBRIS·🇺🇸 United States

Lancé Mar 5, 1978 depuis Vandenberg Space Force Base

Loading…

Prochains Passages (prochaines 24 heures)

TLE

FraisSource: Space-Track

Époque: Sep 14, 2026, 13:21 UTC

1 13573U 78026FL  26257.55653756  .00000016  00000-0  46111-4 0  9990
2 13573  98.7875 106.9033 0073079  30.0935 359.5515 13.89086873295735

Suivez DELTA 1 DEB en temps réel avec AllMySat

Download on the App Store